Regional Weather Roundup
Issued by NWS State College, PA

Home | Current Version | Previous Version | Graphics & Text | Print | Product List | Glossary On
Versions: 1 2 3 4 5 6 7 8 9 10 11 12 13 14 15 16 17 18 19 20 21 22 23 24 25 26 27 28 29 30 31 32 33 34 35 36 37 38 39 40 41 42 43 44 45 46 47 48 49 50
000
ASUS41 KCTP 270610
RWRCTP

REGIONAL WEATHER ROUNDUP
NATIONAL WEATHER SERVICE STATE COLLEGE PA
200 AM EDT FRI MAY 27 2016

Note: "fair" indicates few or no clouds below 12,000 feet with no
significant weather and/or obstructions to visibility.

* = STATION THAT DOES NOT REPORT PRECIPITATION /E.G. RAIN...SNOW...ETC/
    THUNDER OR FOG.

PAZ002>004-007>009-013>016-020>023-029>032-270700-
WESTERN PENNSYLVANIA

CITY           SKY/WX    TMP DP  RH WIND       PRES   REMARKS
ERIE           PTCLDY    74  64  71 S14       29.99F
MEADVILLE      PTCLDY    67  64  90 VRB5      30.04F
FRANKLIN*      CLOUDY    66  61  82 SW6       30.08F
NEW CASTLE     FAIR      69  65  86 SE3       30.05F
BEAVER COUNTY  NOT AVBL
BUTLER*        CLEAR     68  63  83 S5        30.09S
PITTSBURGH INT PTCLDY    69  63  81 S3        30.05F
PITTSBURGH     PTCLDY    68  62  81 S7        30.06F
INDIANA*       CLOUDY    64  63  94 CALM      30.12S
LATROBE        PTCLDY    68  66  94 S3        30.08F
WASHINGTON CO* CLEAR     61  59  94 CALM      30.07S
$$

PAZ004>006-010>012-017>019-024>028-033>037-041-042-045-046-049>053-270700-
CENTRAL PENNSYLVANIA

CITY           SKY/WX    TMP DP  RH WIND       PRES   REMARKS
BRADFORD       PTCLDY    66  59  78 VRB3      30.10R
DUBOIS         PTCLDY    66  60  81 S5        30.09R
CLEARFIELD     MOCLDY    63  61  93 CALM      30.09R
JOHNSTOWN      CLOUDY    67  58  72 SW5       30.13R
ALTOONA        CLOUDY    65  61  87 W5        30.10R
STATE COLLEGE  MOCLDY    64  63  94 CALM      30.08R
WILLIAMSPORT   CLOUDY    67  60  78 NW3       30.02S
SELINSGROVE    CLOUDY    68  64  87 CALM      30.03S
FT INDIANTOWN  CLOUDY    70  67  90 VRB1      30.04S
CAPITAL CITY   CLOUDY    74  64  71 CALM      30.03S
HARRISBURG     CLOUDY    73  66  78 S3        30.02S
YORK           CLOUDY    73  64  73 S5        30.04S
$$

PAZ038>040-043-044-047-048-054-055-060>062-067>071-270700-
EASTERN PENNSYLVANIA

CITY           SKY/WX    TMP DP  RH WIND       PRES   REMARKS
SCRANTON       CLOUDY    74  60  61 SW3       30.05S
MOUNT POCONO   CLOUDY    62  55  77 SW5       30.10F
ALLENTOWN      LGT RAIN  72  64  76 SW13G18   30.06R
QUAKERTOWN*    CLOUDY    72  64  78 CALM      30.07S
READING        CLOUDY    72  63  73 NW5       30.04R
LANCASTER      CLOUDY    74  63  68 S6        30.04S
COATESVILLE    CLOUDY    72  63  73 CALM      30.08S
POTTSTOWN      MOCLDY    73  62  68 S3        30.07R
BLUE BELL      MOCLDY    72  61  68 S6        30.05S
DOYLESTOWN     CLOUDY    70  57  63 CALM      30.05S
WILLOW GROVE   NOT AVBL
NORTH PHILA    MOCLDY    74  61  63 S3        30.07S
PHILADELPHIA   MOCLDY    73  61  65 SW3       30.06S
$$




USA.gov is the U.S. government's official web portal to all federal, state and local government web resources and services.